• In Österreich
  • Länderverzeichnis
  • Für 7 Tage
  • Wassertemperatur
  • Satellitenkarten
  • Wetterkarte
  • News
  • Widgets
  • user-avatar
    Anmelden

    Stündliche Wetter Fez

    Heute, 23 Januar, Dienstag

    Zeit Temperatur Niederschläge Wind Luftdruck Luftfeuchtigkeit
    00:00 +10°C° 0 mm 0 m/S 736 mmHg 84%
    01:00 +10°C° 0 mm 0 m/S 736 mmHg 83%
    02:00 +10°C° 0 mm 0 m/S 735 mmHg 83%
    03:00 +10°C° 0 mm 0 m/S 735 mmHg 82%
    04:00 +9°C° 0 mm 0 m/S 735 mmHg 81%
    05:00 +9°C° 0 mm 0 m/S 735 mmHg 80%
    06:00 +9°C° 0 mm 0 m/S 735 mmHg 79%
    07:00 +10°C° 0 mm 0 m/S 736 mmHg 75%
    08:00 +12°C° 0 mm 0 m/S 736 mmHg 70%
    09:00 +13°C° 0 mm 0 m/S 736 mmHg 66%
    10:00 +15°C° 0 mm 0 m/S 736 mmHg 60%
    11:00 +18°C° 0 mm 1 m/S 736 mmHg 54%
    12:00 +20°C° 0 mm 1 m/S 736 mmHg 52%
    13:00 +20°C° 0 mm 1 m/S 736 mmHg 51%
    14:00 +21°C° 0 mm 1 m/S 736 mmHg 49%
    15:00 +21°C° 0 mm 1 m/S 736 mmHg 48%
    16:00 +19°C° 0 mm 1 m/S 735 mmHg 56%
    17:00 +16°C° 0 mm 1 m/S 735 mmHg 65%
    18:00 +15°C° 0 mm 1 m/S 735 mmHg 73%
    19:00 +13°C° 0 mm 0 m/S 735 mmHg 74%
    20:00 +12°C° 0 mm 0 m/S 736 mmHg 75%
    21:00 +12°C° 0 mm 0 m/S 736 mmHg 76%
    22:00 +12°C° 0 mm 0 m/S 736 mmHg 74%
    23:00 +11°C° 0 mm 0 m/S 736 mmHg 73%

    Morgen, 24 Januar, Mittwoch

    Zeit Temperatur Niederschläge Wind Luftdruck Luftfeuchtigkeit
    00:00 +11°C° 0 mm 0 m/S 736 mmHg 72%
    01:00 +11°C° 0 mm 0 m/S 735 mmHg 69%
    02:00 +12°C° 0 mm 1 m/S 735 mmHg 65%
    03:00 +12°C° 0 mm 1 m/S 735 mmHg 62%
    04:00 +12°C° 0 mm 1 m/S 735 mmHg 60%
    05:00 +12°C° 0 mm 1 m/S 735 mmHg 58%
    06:00 +11°C° 0 mm 1 m/S 735 mmHg 56%
    07:00 +13°C° 0 mm 1 m/S 735 mmHg 55%
    08:00 +13°C° 0 mm 0 m/S 735 mmHg 54%
    09:00 +14°C° 0 mm 0 m/S 736 mmHg 53%
    10:00 +18°C° 0 mm 1 m/S 736 mmHg 47%
    11:00 +20°C° 0 mm 1 m/S 736 mmHg 41%
    12:00 +21°C° 0 mm 1 m/S 736 mmHg 35%
    13:00 +22°C° 0 mm 1 m/S 736 mmHg 36%
    14:00 +22°C° 0 mm 1 m/S 735 mmHg 36%
    15:00 +22°C° 0 mm 1 m/S 735 mmHg 36%
    16:00 +20°C° 0 mm 1 m/S 735 mmHg 44%
    17:00 +18°C° 0 mm 1 m/S 735 mmHg 52%
    18:00 +15°C° 0 mm 1 m/S 735 mmHg 61%
    19:00 +15°C° 0 mm 1 m/S 735 mmHg 63%
    20:00 +13°C° 0 mm 0 m/S 735 mmHg 65%
    21:00 +13°C° 0 mm 0 m/S 735 mmHg 67%
    22:00 +12°C° 0 mm 0 m/S 735 mmHg 68%
    23:00 +12°C° 0 mm 0 m/S 735 mmHg 68%

    übermorgen, 25 Januar, Donnerstag

    Zeit Temperatur Niederschläge Wind Luftdruck Luftfeuchtigkeit
    00:00 +12°C° 0 mm 0 m/S 735 mmHg 69%
    01:00 +11°C° 0 mm 0 m/S 735 mmHg 69%
    02:00 +11°C° 0 mm 0 m/S 735 mmHg 69%
    03:00 +11°C° 0 mm 0 m/S 734 mmHg 69%
    04:00 +11°C° 0 mm 0 m/S 734 mmHg 69%
    05:00 +10°C° 0 mm 0 m/S 734 mmHg 69%
    06:00 +10°C° 0 mm 0 m/S 734 mmHg 69%
    07:00 +11°C° 0 mm 0 m/S 734 mmHg 66%
    08:00 +13°C° 0 mm 1 m/S 735 mmHg 64%
    09:00 +14°C° 0 mm 1 m/S 735 mmHg 61%
    10:00 +16°C° 0 mm 1 m/S 735 mmHg 59%
    11:00 +18°C° 0 mm 1 m/S 735 mmHg 57%
    12:00 +18°C° 0 mm 2 m/S 735 mmHg 55%
    13:00 +18°C° 0 mm 2 m/S 735 mmHg 57%
    14:00 +18°C° 0 mm 3 m/S 734 mmHg 59%
    15:00 +18°C° 0 mm 3 m/S 734 mmHg 61%
    16:00 +16°C° 0 mm 3 m/S 734 mmHg 69%
    17:00 +15°C° 0 mm 2 m/S 734 mmHg 77%
    18:00 +14°C° 0 mm 2 m/S 734 mmHg 86%
    19:00 +14°C° 0 mm 2 m/S 735 mmHg 87%
    20:00 +13°C° 0 mm 1 m/S 735 mmHg 89%
    21:00 +13°C° 0 mm 1 m/S 736 mmHg 90%
    22:00 +12°C° 0 mm 1 m/S 736 mmHg 91%
    23:00 +12°C° 0 mm 1 m/S 736 mmHg 91%

    26 Januar, Freitag

    Zeit Temperatur Niederschläge Wind Luftdruck Luftfeuchtigkeit
    00:00 +11°C° 0 mm 1 m/S 735 mmHg 92%
    01:00 +11°C° 0,2 mm 1 m/S 735 mmHg 90%
    02:00 +10°C° 0,2 mm 2 m/S 735 mmHg 89%
    03:00 +10°C° 0,2 mm 2 m/S 735 mmHg 88%
    04:00 +10°C° 0,3 mm 2 m/S 735 mmHg 88%
    05:00 +10°C° 0,3 mm 3 m/S 735 mmHg 88%
    06:00 +10°C° 0,3 mm 4 m/S 736 mmHg 88%
    07:00 +10°C° 0,1 mm 4 m/S 736 mmHg 83%
    08:00 +8°C° 0,1 mm 4 m/S 736 mmHg 78%
    09:00 +8°C° 0,1 mm 4 m/S 737 mmHg 73%
    10:00 +9°C° 0 mm 5 m/S 737 mmHg 66%
    11:00 +9°C° 0 mm 5 m/S 737 mmHg 58%
    12:00 +10°C° 0 mm 5 m/S 737 mmHg 51%
    13:00 +10°C° 0 mm 5 m/S 737 mmHg 50%
    14:00 +12°C° 0 mm 5 m/S 737 mmHg 49%
    15:00 +11°C° 0 mm 6 m/S 737 mmHg 48%
    16:00 +11°C° 0 mm 4 m/S 737 mmHg 54%
    17:00 +9°C° 0 mm 3 m/S 737 mmHg 60%
    18:00 +8°C° 0 mm 2 m/S 738 mmHg 66%
    19:00 +7°C° 0 mm 2 m/S 738 mmHg 69%
    20:00 +7°C° 0 mm 2 m/S 739 mmHg 71%
    21:00 +7°C° 0 mm 1 m/S 739 mmHg 74%
    22:00 +7°C° 0 mm 1 m/S 739 mmHg 75%
    23:00 +7°C° 0 mm 1 m/S 739 mmHg 75%

    27 Januar, Samstag

    Zeit Temperatur Niederschläge Wind Luftdruck Luftfeuchtigkeit
    00:00 +6°C° 0 mm 1 m/S 739 mmHg 76%
    01:00 +6°C° 0 mm 1 m/S 739 mmHg 74%
    02:00 +6°C° 0 mm 1 m/S 738 mmHg 72%
    03:00 +6°C° 0 mm 1 m/S 738 mmHg 70%
    04:00 +4°C° 0 mm 0 m/S 738 mmHg 68%
    05:00 +4°C° 0 mm 0 m/S 738 mmHg 65%
    06:00 +4°C° 0 mm 0 m/S 737 mmHg 63%
    07:00 +5°C° 0 mm 0 m/S 738 mmHg 59%
    08:00 +6°C° 0 mm 0 m/S 738 mmHg 54%
    09:00 +7°C° 0 mm 0 m/S 738 mmHg 50%
    10:00 +10°C° 0 mm 1 m/S 738 mmHg 47%
    11:00 +11°C° 0 mm 1 m/S 738 mmHg 43%
    12:00 +12°C° 0 mm 1 m/S 738 mmHg 40%
    13:00 +12°C° 0 mm 2 m/S 737 mmHg 40%
    14:00 +13°C° 0 mm 2 m/S 736 mmHg 41%
    15:00 +12°C° 0 mm 3 m/S 736 mmHg 42%
    16:00 +12°C° 0 mm 2 m/S 736 mmHg 50%
    17:00 +9°C° 0 mm 2 m/S 736 mmHg 59%
    18:00 +9°C° 0 mm 1 m/S 736 mmHg 67%
    19:00 +8°C° 0 mm 1 m/S 736 mmHg 69%
    20:00 +8°C° 0 mm 1 m/S 736 mmHg 71%
    21:00 +7°C° 0 mm 1 m/S 736 mmHg 74%
    22:00 +7°C° 0 mm 1 m/S 736 mmHg 73%
    23:00 +7°C° 0 mm 1 m/S 736 mmHg 73%

    28 Januar, Sonntag

    Zeit Temperatur Niederschläge Wind Luftdruck Luftfeuchtigkeit
    00:00 +6°C° 0 mm 1 m/S 735 mmHg 72%
    01:00 +6°C° 0 mm 1 m/S 735 mmHg 71%
    02:00 +6°C° 0 mm 1 m/S 734 mmHg 70%
    03:00 +6°C° 0 mm 1 m/S 733 mmHg 68%
    04:00 +6°C° 0 mm 1 m/S 733 mmHg 67%
    05:00 +6°C° 0 mm 1 m/S 733 mmHg 66%
    06:00 +6°C° 0 mm 1 m/S 733 mmHg 65%
    07:00 +7°C° 0 mm 1 m/S 733 mmHg 62%
    08:00 +7°C° 0 mm 1 m/S 733 mmHg 59%
    09:00 +8°C° 0 mm 1 m/S 734 mmHg 56%
    10:00 +9°C° 0 mm 2 m/S 734 mmHg 52%
    11:00 +10°C° 0 mm 3 m/S 734 mmHg 48%
    12:00 +11°C° 0 mm 4 m/S 734 mmHg 45%
    13:00 +12°C° 0 mm 4 m/S 734 mmHg 44%
    14:00 +12°C° 0 mm 4 m/S 733 mmHg 43%
    15:00 +12°C° 0 mm 4 m/S 733 mmHg 42%
    16:00 +11°C° 0 mm 4 m/S 733 mmHg 47%
    17:00 +10°C° 0 mm 3 m/S 733 mmHg 52%
    18:00 +8°C° 0 mm 3 m/S 733 mmHg 57%
    19:00 +8°C° 0 mm 2 m/S 733 mmHg 58%
    20:00 +7°C° 0 mm 2 m/S 733 mmHg 59%
    21:00 +8°C° 0 mm 1 m/S 734 mmHg 60%
    22:00 +8°C° 0 mm 1 m/S 733 mmHg 60%
    23:00 +7°C° 0 mm 1 m/S 733 mmHg 60%
    Mehr zeigen